Find Starlink 34407

NORAD ID: 64347 Int'l Des: 2025-126 Owner: SPXS Country: US Constellation: starlink operational
LEOCIRCULAR

現在のビュー

3D地球を読み込み中...

About Starlink 34407

Starlink 34407 (NORAD 64347) is a starlink constellation satellite (v2 mini) launched Jun 13, 2025 by SPXS of US. It operates in LEO, CIRCULAR orbit with a mass of 575.00 kg.

次回通過

Passes for default location (London). Set your location on the main map for personalized predictions.

高度履歴

Loading altitude history...

軌道要素

1 64347U 25126D 26264.38449702 -.00001076 00000-0 -32964-4 0 9991
2 64347 69.9987 258.7037 0003903 271.5550 88.5178 15.29591542 70058
Epoch: Sep 21, 2026 • Age: 18 hours

現在のステータス

高度 479.9 km
遠地点 / 近地点 N/A
速度 7.63 km/s
衛星直下点 18.99°N, 20.73°E
打ち上げ日 Jun 13, 2025
運用期間 1.2 years
タイプ internet

技術仕様

分類 Payload
質量 575.00 kg
乾燥質量 530.00 kg
長さ 0.30 m
スパン 29.00 m
形状 ? Box + pan
製造者 SPXS
バスタイプ Starlink V2MO
フェーズステータス In Orbit
所有者/国 SPXS/US

Most Searched